Change the Weather History Date:

Sunday, July 14, 2013

  Actual Average Record
Temperature  
Mean Temperature 72 °F -  
Max Temperature 75 °F - - ()
Min Temperature 68 °F - - ()
Cooling Degree Days 6    
Growing Degree Days 22 (Base 50)    
Moisture  
Dew Point 68 °F    
Average Humidity 86    
Maximum Humidity 100    
Minimum Humidity 64    
Precipitation  
Precipitation 0.04 in - - ()
Sea Level Pressure  
Sea Level Pressure 29.93 in    
Wind  
Wind Speed 3 mph ()    
Max Wind Speed 16 mph    
Max Gust Speed -    
Visibility 7.5 miles    
Events Rain    
T = Trace of Precipitation, MM = Missing Value Source: Averaged Metar Reports

Daily Weather History Graph

Daily Weather History Graph

Search for Another Location

Airport or City:

Trip Planner

Search our weather history database for the weather conditions in past years. The results will help you decide how hot, cold, wet, or windy it might be!

Date:

Astronomy

Jul. 14, 2013 Rise Set
Actual Time 6:37 AM FJT 5:45 PM FJT
Civil Twilight 6:14 AM FJT 6:09 PM FJT
Nautical Twilight 5:47 AM FJT 6:35 PM FJT
Astronomical Twilight 5:20 AM FJT 7:02 PM FJT
Moon 10:12 AM FJT (7/14) 10:41 PM FJT (7/14)
Length of Visible Light 11h 54m
Length of Day
11h 08m
Waxing Crescent, 28% of the Moon is Illuminated
Jul 14
Waxing Crescent
Jul 16
First Quarter
Jul 23
Full
Jul 30
Last Quarter
Aug 7
New

Hourly Weather History & Observations

Time (FJT) Temp. Dew Point Humidity Pressure Visibility Wind Dir Wind Speed Gust Speed Precip Events Conditions
12:00 AM 73 °F 71 °F 90% 29.94 in 12 mi Calm Calm - -   Partly Cloudy
12:00 AM 73.4 °F 71.6 °F 94% 29.92 in 6.2 mi Calm Calm - N/A   Scattered Clouds
1:00 AM 73.4 °F 71.6 °F 94% 29.92 in 6.2 mi Calm Calm - N/A   Scattered Clouds
2:00 AM 71.6 °F 69.8 °F 94% 29.92 in 6.2 mi Calm Calm - N/A   Scattered Clouds
3:00 AM 72 °F 71 °F 94% 29.92 in 12 mi Calm Calm - -   Partly Cloudy
3:00 AM 71.6 °F 69.8 °F 94% 29.92 in 6.2 mi Calm Calm - N/A   Scattered Clouds
4:00 AM 71.6 °F 71.6 °F 100% 29.89 in 6.2 mi Calm Calm - N/A   Scattered Clouds
5:00 AM 71.6 °F 71.6 °F 100% 29.92 in 6.2 mi Calm Calm - N/A   Scattered Clouds
6:00 AM 71 °F 71 °F 99% 29.92 in 12 mi Calm Calm - -   Partly Cloudy
6:00 AM 71.6 °F 71.6 °F 100% 29.92 in 6.2 mi Calm Calm - N/A   Scattered Clouds
7:00 AM 73.4 °F 71.6 °F 94% 29.92 in 6.2 mi Calm Calm - N/A   Mostly Cloudy
8:00 AM 73.4 °F 71.6 °F 94% 29.95 in 6.2 mi Calm Calm - N/A   Mostly Cloudy
9:00 AM 75 °F 65 °F 64% 29.96 in 31 mi SSE 13.4 mph - -   Partly Cloudy
9:00 AM 75.2 °F 64.4 °F 69% 29.95 in 6.2 mi SSE 6.9 mph - N/A   Mostly Cloudy
10:00 AM 73.4 °F 64.4 °F 73% 29.95 in 6.2 mi SSE 3.5 mph - N/A   Mostly Cloudy
11:00 AM 73.4 °F 66.2 °F 78% 29.95 in 6.2 mi South 15.0 mph - N/A   Mostly Cloudy
12:00 PM 73 °F 68 °F 80% 29.94 in 12 mi South 11.2 mph - - Rain Light Rain Showers
12:00 PM 73.4 °F 68.0 °F 83% 29.92 in 6.2 mi South 5.8 mph - N/A Rain Light Rain Showers
1:00 PM 71.6 °F 66.2 °F 83% 29.89 in 6.2 mi SSE 8.1 mph - N/A   Overcast
2:00 PM 69.8 °F 68.0 °F 94% 29.89 in 6.2 mi SSE 9.2 mph - N/A Rain Light Rain Showers
3:00 PM 72 °F 69 °F 89% 29.89 in 12 mi SSE 15.7 mph - - Rain Light Rain Showers
3:00 PM 73.4 °F 69.8 °F 88% 29.89 in 6.2 mi SSE 8.1 mph - N/A   Mostly Cloudy
4:00 PM 69.8 °F 68.0 °F 94% 29.89 in 6.2 mi SSE 5.8 mph - N/A Rain Light Rain Showers
5:00 PM 69.8 °F 66.2 °F 88% 29.89 in 6.2 mi SSE 5.8 mph - N/A   Mostly Cloudy
6:00 PM 71 °F 67 °F 82% 29.92 in 12 mi SSE 6.7 mph - -   Partly Cloudy
6:00 PM 69.8 °F 66.2 °F 88% 29.92 in 6.2 mi SSE 3.5 mph - N/A   Mostly Cloudy
7:00 PM 69.8 °F 66.2 °F 88% 29.92 in 6.2 mi Calm Calm - N/A   Overcast
8:00 PM 68.0 °F 66.2 °F 94% 29.95 in 6.2 mi SSE 5.8 mph - N/A   Overcast
9:00 PM 72 °F 63 °F 67% 29.97 in 12 mi SSE 8.9 mph - -   Partly Cloudy
9:00 PM 73.4 °F 62.6 °F 69% 29.95 in 6.2 mi SSE 4.6 mph - N/A   Mostly Cloudy
10:00 PM 73.4 °F 62.6 °F 69% 29.98 in 6.2 mi SSE 4.6 mph - N/A   Mostly Cloudy
11:00 PM 73.4 °F 62.6 °F 69% 29.98 in 6.2 mi SE 5.8 mph - N/A   Mostly Cloudy